Location: Carbonear
(47.7333°N, 53.2500°W)
Time: 01:54:26
(UTC+00:00)

XW-2D - Pass Details

Date: 01 December 2022
Orbit: 489 x 502 km, 97.5° (Epoch: 28 January)

Event Time Altitude Azimuth Distance (km) Brightness Sun altitude
Rises 10:14:50 0° 7° (N) 2,580 ? -7.6°
Reaches altitude 10° 10:16:58 10° 1° (N) 1,692 ? -7.3°
Maximum altitude 10:20:27 46° 288° (WNW) 671 ? -6.8°
Drops below altitude 10° 10:23:54 10° 215° (SW) 1,677 ? -6.2°
Sets 10:26:01 0° 209° (SSW) 2,554 ? -5.9°
